| time (UTC) | temp C | wind direction | speed KPH | gust KPH | rain 1hr cm | rain 24hr cm | rain mn cm | humidity % | barometer mb |
| 20260506103018 | 12 | 221 | 3.2 | 8.0 | 0.00 | 0.00 | 0.00 | 53 | 1010.1 |
| 20260506102018 | 12 | 218 | 3.2 | 6.4 | 0.00 | 0.00 | 0.00 | 52 | 1010.1 |
| 20260506101018 | 12 | 220 | 3.2 | 11.3 | 0.00 | 0.00 | 0.00 | 52 | 1010.0 |
| 20260506100020 | 13 | 230 | 3.2 | 8.0 | 0.00 | 0.00 | 0.00 | 51 | 1009.9 |
| 20260506095020 | 13 | 217 | 3.2 | 6.4 | 0.00 | 0.00 | 0.00 | 50 | 1009.9 |
| 20260506094019 | 13 | 226 | 3.2 | 6.4 | 0.00 | 0.00 | 0.00 | 49 | 1009.8 |
| 20260506093019 | 13 | 236 | 3.2 | 8.0 | 0.00 | 0.00 | 0.00 | 50 | 1009.7 |
| 20260506092020 | 13 | 277 | 3.2 | 8.0 | 0.00 | 0.00 | 0.00 | 50 | 1009.7 |
| 20260506091019 | 13 | 217 | 3.2 | 8.0 | 0.00 | 0.00 | 0.00 | 50 | 1009.6 |
| 20260506090019 | 13 | 218 | 1.6 | 4.8 | 0.00 | 0.00 | 0.00 | 49 | 1009.5 |
| 20260506085021 | 13 | 254 | 1.6 | 6.4 | 0.00 | 0.00 | 0.00 | 48 | 1009.5 |
| 20260506084020 | 13 | 284 | 1.6 | 4.8 | 0.00 | 0.00 | 0.00 | 48 | 1009.5 |
| 20260506083021 | 13 | 267 | 3.2 | 8.0 | 0.00 | 0.00 | 0.00 | 48 | 1009.5 |
| 20260506082017 | 13 | 238 | 3.2 | 4.8 | 0.00 | 0.00 | 0.00 | 49 | 1009.5 |
| 20260506081018 | 13 | 274 | 1.6 | 4.8 | 0.00 | 0.00 | 0.00 | 48 | 1009.6 |
| 20260506073018 | 13 | 338 | 3.2 | 6.4 | 0.00 | 0.00 | 0.00 | 50 | 1009.5 |
| 20260506072018 | 13 | 298 | 0.0 | 3.2 | 0.00 | 0.00 | 0.00 | 48 | 1009.4 |
| 20260506071019 | 13 | 300 | 0.0 | 1.6 | 0.00 | 0.00 | 0.00 | 47 | 1009.3 |
| 20260506062021 | 16 | 290 | 1.6 | 4.8 | 0.00 | 0.00 | 0.00 | 38 | 1009.0 |
| 20260506061039 | 17 | 71 | 0.0 | 1.6 | 0.00 | 0.00 | 0.00 | 35 | 1008.9 |
| 20260506051018 | 17 | 109 | 0.0 | 4.8 | 0.00 | 0.00 | 0.00 | 36 | 1009.0 |
| 20260506045021 | 17 | 118 | 1.6 | 8.0 | 0.00 | 0.00 | 0.00 | 34 | 1009.0 |
| 20260506044018 | 18 | 133 | 0.0 | 6.4 | 0.00 | 0.00 | 0.00 | 31 | 1008.9 |
| 20260506043018 | 18 | 105 | 3.2 | 4.8 | 0.00 | 0.00 | 0.00 | 31 | 1008.9 |
| 20260506042018 | 18 | 113 | 3.2 | 4.8 | 0.00 | 0.00 | 0.00 | 30 | 1008.8 |
| 20260506041018 | 18 | 109 | 0.0 | 3.2 | 0.00 | 0.00 | 0.00 | 31 | 1008.8 |
| 20260506040019 | 18 | 103 | 1.6 | 3.2 | 0.00 | 0.00 | 0.00 | 30 | 1008.8 |
| 20260506035020 | 19 | 0.0 | 0.0 | 0.00 | 0.00 | 0.00 | 29 | 1008.8 | |
| 20260506034020 | 20 | 0.0 | 0.0 | 0.00 | 0.00 | 0.00 | 29 | 1008.7 | |
| 20260506033019 | 20 | 0.0 | 0.0 | 0.00 | 0.00 | 0.00 | 29 | 1008.8 | |
| 20260506032020 | 21 | 128 | 0.0 | 3.2 | 0.00 | 0.00 | 0.00 | 28 | 1008.9 |
| 20260506031041 | 22 | 109 | 0.0 | 3.2 | 0.00 | 0.00 | 0.00 | 27 | 1008.8 |
| 20260506030021 | 23 | 136 | 0.0 | 3.2 | 0.00 | 0.00 | 0.00 | 24 | 1008.7 |
| 20260506025020 | 23 | 131 | 1.6 | 4.8 | 0.00 | 0.00 | 0.00 | 25 | 1008.8 |
| 20260506024020 | 23 | 121 | 3.2 | 6.4 | 0.00 | 0.00 | 0.00 | 25 | 1008.8 |
| 20260506023017 | 23 | 100 | 3.2 | 8.0 | 0.00 | 0.00 | 0.00 | 24 | 1008.8 |
| 20260506022017 | 23 | 111 | 3.2 | 8.0 | 0.00 | 0.00 | 0.00 | 24 | 1008.9 |
| 20260506021042 | 24 | 81 | 1.6 | 4.8 | 0.00 | 0.00 | 0.00 | 23 | 1008.8 |
| 20260506020022 | 24 | 72 | 1.6 | 4.8 | 0.00 | 0.00 | 0.00 | 23 | 1008.9 |
| 20260506015017 | 24 | 64 | 3.2 | 6.4 | 0.00 | 0.00 | 0.00 | 23 | 1008.9 |
| 20260506014018 | 24 | 188 | 1.6 | 3.2 | 0.00 | 0.00 | 0.00 | 23 | 1009.0 |
| 20260506013018 | 24 | 157 | 0.0 | 4.8 | 0.00 | 0.00 | 0.00 | 24 | 1009.1 |
| 20260506012018 | 24 | 45 | 3.2 | 11.3 | 0.00 | 0.00 | 0.00 | 23 | 1009.2 |
| 20260506011018 | 24 | 256 | 1.6 | 11.3 | 0.00 | 0.00 | 0.00 | 23 | 1009.3 |
| 20260506010018 | 24 | 92 | 3.2 | 8.0 | 0.00 | 0.00 | 0.00 | 23 | 1009.4 |
| 20260506005020 | 24 | 167 | 3.2 | 6.4 | 0.00 | 0.00 | 0.00 | 24 | 1009.6 |
| 20260506004019 | 23 | 151 | 0.0 | 3.2 | 0.00 | 0.00 | 0.00 | 25 | 1009.6 |
| 20260506003019 | 23 | 72 | 3.2 | 8.0 | 0.00 | 0.00 | 0.00 | 24 | 1009.8 |
| 20260506002019 | 23 | 236 | 3.2 | 9.7 | 0.00 | 0.00 | 0.00 | 24 | 1009.9 |
| 20260506001020 | 23 | 238 | 1.6 | 8.0 | 0.00 | 0.00 | 0.00 | 24 | 1010.0 |
| 20260506000020 | 23 | 228 | 3.2 | 11.3 | 0.00 | 0.00 | 0.00 | 25 | 1010.1 |
| 20260505235020 | 23 | 204 | 3.2 | 9.7 | 0.00 | 0.00 | 0.00 | 27 | 1010.2 |
| 20260505234017 | 23 | 208 | 1.6 | 8.0 | 0.00 | 0.00 | 0.00 | 25 | 1010.5 |
| 20260505233039 | 23 | 119 | 3.2 | 9.7 | 0.00 | 0.00 | 0.00 | 25 | 1010.5 |
| 20260505232017 | 22 | 75 | 3.2 | 11.3 | 0.00 | 0.00 | 0.00 | 26 | 1010.7 |
| 20260505231041 | 22 | 305 | 3.2 | 12.9 | 0.00 | 0.00 | 0.00 | 26 | 1010.9 |
| 20260505230018 | 22 | 162 | 4.8 | 14.5 | 0.00 | 0.00 | 0.00 | 25 | 1011.1 |
| 20260505225018 | 23 | 250 | 1.6 | 8.0 | 0.00 | 0.00 | 0.00 | 25 | 1011.1 |
| 20260505224018 | 22 | 175 | 3.2 | 8.0 | 0.00 | 0.00 | 0.00 | 24 | 1011.3 |
| 20260505223018 | 22 | 207 | 4.8 | 12.9 | 0.00 | 0.00 | 0.00 | 25 | 1011.3 |
| 20260505222018 | 22 | 178 | 1.6 | 6.4 | 0.00 | 0.00 | 0.00 | 26 | 1011.5 |
| 20260505221019 | 21 | 212 | 4.8 | 9.7 | 0.00 | 0.00 | 0.00 | 25 | 1011.7 |
| 20260505220019 | 22 | 234 | 4.8 | 12.9 | 0.00 | 0.00 | 0.00 | 25 | 1011.8 |
| 20260505215020 | 22 | 186 | 4.8 | 12.9 | 0.00 | 0.00 | 0.00 | 26 | 1011.8 |
| 20260505214041 | 22 | 223 | 4.8 | 14.5 | 0.00 | 0.00 | 0.00 | 25 | 1012.0 |
| 20260505213020 | 21 | 188 | 1.6 | 6.4 | 0.00 | 0.00 | 0.00 | 27 | 1012.2 |
| 20260505212016 | 21 | 205 | 3.2 | 8.0 | 0.00 | 0.00 | 0.00 | 26 | 1012.3 |
| 20260505211021 | 21 | 258 | 8.0 | 14.5 | 0.00 | 0.00 | 0.00 | 25 | 1012.4 |
| 20260505210020 | 22 | 242 | 4.8 | 11.3 | 0.00 | 0.00 | 0.00 | 26 | 1012.5 |
| 20260505205021 | 21 | 108 | 3.2 | 11.3 | 0.00 | 0.00 | 0.00 | 29 | 1012.6 |
| 20260505204017 | 21 | 224 | 1.6 | 9.7 | 0.00 | 0.00 | 0.00 | 28 | 1012.7 |
| 20260505203017 | 21 | 198 | 4.8 | 8.0 | 0.00 | 0.00 | 0.00 | 28 | 1012.9 |
| 20260505202017 | 21 | 202 | 3.2 | 6.4 | 0.00 | 0.00 | 0.00 | 28 | 1013.0 |
| 20260505201021 | 20 | 67 | 4.8 | 9.7 | 0.00 | 0.00 | 0.00 | 31 | 1013.1 |
| 20260505200018 | 20 | 118 | 3.2 | 8.0 | 0.00 | 0.00 | 0.00 | 30 | 1013.3 |
| 20260505195019 | 20 | 255 | 6.4 | 14.5 | 0.00 | 0.00 | 0.00 | 30 | 1013.4 |
| 20260505194018 | 20 | 45 | 3.2 | 8.0 | 0.00 | 0.00 | 0.00 | 30 | 1013.5 |
| 20260505193040 | 19 | 138 | 3.2 | 8.0 | 0.00 | 0.00 | 0.00 | 33 | 1013.5 |
| 20260505192019 | 19 | 53 | 6.4 | 11.3 | 0.00 | 0.00 | 0.00 | 33 | 1013.6 |
| 20260505191019 | 18 | 80 | 1.6 | 12.9 | 0.00 | 0.00 | 0.00 | 32 | 1013.8 |
| 20260505190019 | 18 | 7 | 3.2 | 9.7 | 0.00 | 0.00 | 0.00 | 34 | 1013.9 |
| 20260505185019 | 18 | 33 | 4.8 | 11.3 | 0.00 | 0.00 | 0.00 | 35 | 1014.0 |
| 20260505184019 | 18 | 58 | 3.2 | 12.9 | 0.00 | 0.00 | 0.00 | 35 | 1014.2 |
| 20260505183019 | 18 | 109 | 1.6 | 6.4 | 0.00 | 0.00 | 0.00 | 35 | 1014.2 |
| 20260505182036 | 17 | 66 | 1.6 | 9.7 | 0.00 | 0.00 | 0.00 | 37 | 1014.3 |
| 20260505181019 | 16 | 99 | 3.2 | 9.7 | 0.00 | 0.00 | 0.00 | 38 | 1014.4 |
| 20260505180020 | 16 | 64 | 3.2 | 9.7 | 0.00 | 0.00 | 0.00 | 38 | 1014.5 |
| 20260505175020 | 16 | 97 | 3.2 | 9.7 | 0.00 | 0.00 | 0.00 | 41 | 1014.6 |
| 20260505174058 | 15 | 50 | 1.6 | 6.4 | 0.00 | 0.00 | 0.00 | 41 | 1014.7 |
| 20260505173017 | 15 | 5 | 1.6 | 8.0 | 0.00 | 0.00 | 0.00 | 42 | 1014.8 |
| 20260505172018 | 15 | 30 | 3.2 | 9.7 | 0.00 | 0.00 | 0.00 | 42 | 1014.8 |
| 20260505171021 | 15 | 16 | 3.2 | 6.4 | 0.00 | 0.00 | 0.00 | 42 | 1015.0 |
| 20260505170021 | 13 | 26 | 3.2 | 11.3 | 0.00 | 0.00 | 0.00 | 44 | 1015.0 |
| 20260505165020 | 13 | 32 | 4.8 | 12.9 | 0.00 | 0.00 | 0.00 | 44 | 1015.2 |
| 20260505164020 | 13 | 21 | 4.8 | 12.9 | 0.00 | 0.00 | 0.00 | 44 | 1015.2 |
| 20260505163018 | 12 | 13 | 4.8 | 9.7 | 0.00 | 0.00 | 0.00 | 46 | 1015.3 |
| 20260505162019 | 12 | 26 | 4.8 | 12.9 | 0.00 | 0.00 | 0.00 | 46 | 1015.3 |
| 20260505161019 | 12 | 12 | 4.8 | 11.3 | 0.00 | 0.00 | 0.00 | 46 | 1015.3 |
| 20260505153019 | 11 | 10 | 3.2 | 9.7 | 0.00 | 0.00 | 0.00 | 50 | 1015.2 |
| 20260505152017 | 10 | 4 | 4.8 | 11.3 | 0.00 | 0.00 | 0.00 | 52 | 1015.2 |
| 20260505151020 | 10 | 31 | 3.2 | 9.7 | 0.00 | 0.00 | 0.00 | 53 | 1015.2 |
| 20260505125040 | 7 | 11 | 4.8 | 12.9 | 0.00 | 0.00 | 0.00 | 58 | 1015.1 |
| 20260505124020 | 7 | 360 | 3.2 | 8.0 | 0.00 | 0.00 | 0.00 | 59 | 1015.1 |
| 20260505123017 | 7 | 359 | 3.2 | 6.4 | 0.00 | 0.00 | 0.00 | 58 | 1015.2 |
| 20260505122020 | 7 | 354 | 3.2 | 6.4 | 0.00 | 0.00 | 0.00 | 58 | 1015.1 |
| 20260505121020 | 7 | 6 | 3.2 | 8.0 | 0.00 | 0.00 | 0.00 | 57 | 1015.1 |
| 20260505120020 | 8 | 12 | 4.8 | 9.7 | 0.00 | 0.00 | 0.00 | 56 | 1015.1 |
| 20260505115017 | 8 | 16 | 4.8 | 12.9 | 0.00 | 0.00 | 0.00 | 56 | 1015.1 |
| 20260505114018 | 8 | 23 | 4.8 | 12.9 | 0.00 | 0.00 | 0.00 | 56 | 1015.1 |
| 20260505113039 | 8 | 13 | 4.8 | 9.7 | 0.00 | 0.00 | 0.00 | 56 | 1015.1 |
| 20260505112022 | 8 | 15 | 4.8 | 11.3 | 0.00 | 0.00 | 0.00 | 56 | 1015.0 |
| 20260505111021 | 8 | 21 | 4.8 | 11.3 | 0.00 | 0.00 | 0.00 | 55 | 1015.0 |